This demonstration page uses our WeatherBlox Daily Observations layout. Learn more.

41.55636, -103.73856

Hourly Observations for May 2, 2015

Temp ( °F °C ) Dew Point ( °F °C ) Humidity (%) Winds ( mph kmh ) Pressure ( in mb ) Visibility ( mi km ) Precip ( " mm )
12:53 am 00:53 Clear 51 10.6 45 7.2 80 80 ESE 6 9 29.89 1012 10 16.0934 0 0
1:53 am 01:53 Clear 49 9.4 45 7.2 86 86 E 8 13 29.88 1012 10 16.0934 0 0
2:53 am 02:53 Clear 49 9.4 45 7.2 86 86 E 8 13 29.85 1011 10 16.0934 0 0
3:53 am 03:53 Clear 46 7.8 43 6.1 89 89 E 6 9 29.84 1011 10 16.0934 0 0
4:53 am 04:53 Clear 45 7.2 42 5.6 90 90 E 7 11 29.83 1010 10 16.0934 0 0
5:53 am 05:53 Sunny 44 6.7 41 5 89 89 E 6 9 29.82 1010 10 16.0934 0 0
6:53 am 06:53 Sunny 50 10 45 7.2 83 83 Calm 29.81 1010 10 16.0934 0 0
7:53 am 07:53 Sunny 56 13.3 47 8.3 72 72 Calm 29.81 1010 10 16.0934 0 0
8:53 am 08:53 Sunny 63 17.2 45 7.2 52 52 W 10 17 29.8 1009 10 16.0934 0 0
9:53 am 09:53 Sunny 65 18.3 45 7.2 49 49 WNW 12 19 29.79 1009 10 16.0934 0 0
10:53 am 10:53 Sunny 72 22.2 41 5 33 33 WNW 13 20 29.77 1008 10 16.0934 0 0
11:53 am 11:53 Sunny 78 25.6 34 1.1 20 20 W 12 19 29.76 1008 10 16.0934 0 0
12:53 pm 12:53 Sunny 80 26.7 27 -2.8 14 14 W 13 20 29.74 1007 10 16.0934 0 0
1:53 pm 13:53 Sunny 81 27.2 29 -1.7 15 15 WNW 15 24 29.71 1006 10 16.0934 0 0
2:06 pm 14:06 Sunny 82 28 30 -1 15 15 WNW 18 30 29.53 1000 10 16.0934 0 0
2:53 pm 14:53 Sunny 82 27.8 34 1.1 18 18 WNW 17 28 29.68 1005 10 16.0934 0 0
3:53 pm 15:53 Sunny 82 27.8 33 0.6 17 17 W 10 17 29.67 1005 10 16.0934 0 0
4:53 pm 16:53 Sunny 82 27.8 33 0.6 17 17 WNW 10 17 29.66 1004 10 16.0934 0 0
5:53 pm 17:53 Sunny 81 27.2 34 1.1 18 18 WNW 8 13 29.66 1004 10 16.0934 0 0
6:53 pm 18:53 Sunny 75 23.9 38 3.3 26 26 SSW 13 20 29.67 1005 10 16.0934 0 0
7:53 pm 19:53 Mostly Cloudy 69 20.6 39 3.9 33 33 SSW 16 26 29.7 1006 10 16.0934 0 0
8:53 pm 20:53 Clear 66 18.9 40 4.4 39 39 SW 10 17 29.71 1006 10 16.0934 0 0
9:53 pm 21:53 Clear 62 16.7 40 4.4 44 44 WSW 6 9 29.72 1006 10 16.0934 0 0
10:53 pm 22:53 Clear 59 15 42 5.6 54 54 SW 7 11 29.7 1006 10 16.0934 0 0
11:53 pm 23:53 Clear 61 16.1 40 4.4 46 46 Calm 29.69 1005 10 16.0934 0 0

Powered by AerisWeather